Regional Weather Roundup
Issued by NWS Jackson, KY

Home | Current Version | Previous Version | Graphics & Text | Print | Product List | Glossary On
Versions: 1 2 3 4 5 6 7 8 9 10 11 12 13 14 15 16 17 18 19 20 21 22 23 24 25 26 27 28 29 30 31 32 33 34 35 36 37 38 39 40 41 42 43 44 45 46 47 48 49 50
000
ASUS43 KJKL 020310
RWRJKL

EAST KENTUCKY HOURLY WEATHER ROUNDUP
NATIONAL WEATHER SERVICE JACKSON KY
1100 PM EDT MON SEP 01 2014

NOTE: "FAIR" INDICATES FEW OR NO CLOUDS BELOW 12,000 FEET WITH
NO SIGNIFICANT WEATHER AND/OR OBSTRUCTIONS TO VISIBILITY.

* THESE REPORTS ARE NOT UNDER NWS QUALITY CONTROL AND MAY NOT
  REPORT WEATHER SUCH AS PRECIPITATION AND FOG.

KYZ079-080-083-085-087-088-110-112-115-119-120-020400
...EASTERN KENTUCKY...

CITY           SKY/WX    TMP DP  RH WIND       PRES   REMARKS
JACKSON        MOCLDY    76  67  73 VRB3      30.07S
LONDON         PTCLDY    76  68  76 S3        30.08S
SOMERSET*      PTCLDY    72  70  94 CALM      30.07S
MONTICELLO*    CLEAR     71  69  93 CALM      30.08R
MIDDLESBORO*   PTCLDY    73  71  94 CALM      30.10R
HARLAN APT*    PTCLDY    72  72 100 MISG      30.12R
HAZARD APT*    PTCLDY    77  70  78 SW3       30.08
BLACK MTN*       N/A     68  66  94 S5          N/A
BIG SANDY*     MOCLDY    78  70  76 SW5       30.06S
MOREHEAD APT*  MOCLDY    77  70  78 SW13G24   30.06R
$$

KYZ035-036-041-042-044-050-067-078-099-020400
...CENTRAL KENTUCKY...

CITY           SKY/WX    TMP DP  RH WIND       PRES   REMARKS
MT STERLING*   MOCLDY    73  70  88 W5        30.04F
FLEMING/MASON* CLEAR     75  70  83 SW10      30.02S
DANVILLE*      CLOUDY    73  70  88 CALM      30.05S
RICHMOND*      PTCLDY    77  66  69 SW5       30.04S
LEXINGTON      MOCLDY    74  71  91 S7        30.03S
FRANKFORT      CLEAR     75  72  90 S3        30.00S
$$

KYZ091>093-OHZ055-061-077-WVZ005-015-034-035-042-020400
...SOUTHERN OHIO/WEST VIRGINIA...

CITY           SKY/WX    TMP DP  RH WIND       PRES   REMARKS
COVINGTON      PTCLDY    77  69  76 SW8       29.97R
COLUMBUS       PTCLDY    79  70  74 S7        29.94R
DAYTON         PTCLDY    76  70  82 SW9       29.95S
WILMINGTON     CLEAR     74  69  85 SW9       29.96R
HUNTINGTON     CLOUDY    73  72  96 S5        30.01S
CHARLESTON     CLOUDY    72  71  97 S5        30.02S
BECKLEY        CLEAR     73  64  73 SW7       30.14S
BLUEFIELD      CLEAR     73  62  68 SW3       30.18S
$$

VAZ002-007-008-TNZ017-027-036-066-071-020400
...SOUTHWEST VIRGINIA/EAST TENNESSEE...

CITY           SKY/WX    TMP DP  RH WIND       PRES   REMARKS
WISE*          PTCLDY    72  63  73 SW5       30.19R
JONESVILLE*      N/A     72  72 100 CALM      30.13S
ABINGDON*      CLEAR     73  69  88 CALM      30.16R
BRISTOL        PTCLDY    72  68  87 CALM      30.12R
KNOXVILLE      PTCLDY    77  70  79 S6        30.08R
OAK RIDGE      CLEAR     77  72  84 CALM      30.10R
CROSSVILLE     CLEAR     74  69  85 CALM      30.14R
NASHVILLE      PTCLDY    78  69  73 S5        30.03S
$$

...KEY TO REMARKS...
VSB - VISIBILITY IN MILES
WCI - WIND CHILL INDEX
HX  - HEAT INDEX

$$



USA.gov is the U.S. government's official web portal to all federal, state and local government web resources and services.